Back to catalog

COSMOS 1275 DEB

AlivePO
NORAD 12666·DEBRIS·🇷🇺 Russia

Launched Jun 4, 1981 from Plesetsk Cosmodrome

Loading…

Next Passes (next 24 hours)

TLE

FreshSource: Space-Track

Epoch: Sep 14, 2026, 11:00 UTC

1 12666U 81053W   26257.45851686  .00000300  00000-0  29666-3 0  9998
2 12666  82.8744 154.0072 0069753   5.4769 169.0246 13.74483415255343

Track COSMOS 1275 DEB in real time with AllMySat

Download on the App Store